Weather History for KCRP - March, 2011

Change the Weather History Date:

Tuesday, March 22, 2011

  Actual Average Record
Temperature  
Mean Temperature 75 °F 67 °F  
Max Temperature 81 °F 77 °F 95 °F (1971)
Min Temperature 68 °F 58 °F 35 °F (1968)
Degree Days  
Heating Degree Days 0 2  
Month to date heating degree days 45 67  
Since 1 July heating degree days 933 867  
Cooling Degree Days 10 4  
Month to date cooling degree days 96 72  
Year to date cooling degree days 194 148  
Growing Degree Days 24 (Base 50)    
Moisture  
Dew Point 65 °F    
Average Humidity 74    
Maximum Humidity 93    
Minimum Humidity 54    
Precipitation  
Precipitation 0.00 in 0.06 in 1.29 in (1911)
Month to date precipitation 0.22 1.37  
Year to date precipitation 4.36 4.84  
Snow  
Snow 0.00 in - - ()
Month to date snowfall 0.0  
Since 1 July snowfall 0.0  
Snow Depth 0.00 in    
Sea Level Pressure  
Sea Level Pressure 29.93 in    
Wind  
Wind Speed 20 mph (SSE)    
Max Wind Speed 30 mph    
Max Gust Speed 40 mph    
Visibility 10 miles    
Events      
T = Trace of Precipitation, MM = Missing Value Source: NWS Daily Summary

Daily Weather History Graph

Daily Weather History Graph

Search for Another Location

Airport or City:

Trip Planner

Search our weather history database for the weather conditions in past years. The results will help you decide how hot, cold, wet, or windy it might be!

Date:

Astronomy

Mar. 22, 2011 Rise Set
Actual Time 7:31 AM CDT 7:42 PM CDT
Civil Twilight 7:08 AM CDT 8:05 PM CDT
Nautical Twilight 6:41 AM CDT 8:33 PM CDT
Astronomical Twilight 6:13 AM CDT 9:00 PM CDT
Moon 11:23 PM CDT (3/22) 9:21 AM CDT (3/22)
Length of Visible Light 12h 57m
Length of Day
12h 10m
Waning Gibbous, 87% of the Moon is Illuminated
Mar 22
Waning Gibbous
Mar 26
Last Quarter
Apr 3
New
Apr 11
First Quarter
Apr 17
Full

Hourly Weather History & Observations

Time (CDT) Temp. Heat Index Dew Point Humidity Pressure Visibility Wind Dir Wind Speed Gust Speed Precip Events Conditions
12:51 AM 70.0 °F - 66.0 °F 87% 30.04 in 10.0 mi SSE 20.7 mph 31.1 mph N/A   Overcast
1:51 AM 70.0 °F - 66.0 °F 87% 30.02 in 10.0 mi SSE 17.3 mph 27.6 mph N/A   Overcast
2:42 AM 69.8 °F - 66.2 °F 88% 30.01 in 10.0 mi SSE 16.1 mph - N/A   Partly Cloudy
2:51 AM 69.1 °F - 66.0 °F 90% 30.00 in 10.0 mi SSE 16.1 mph - N/A   Mostly Cloudy
3:01 AM 69.8 °F - 64.4 °F 83% 30.00 in 10.0 mi SSE 15.0 mph 24.2 mph N/A   Scattered Clouds
3:10 AM 69.8 °F - 66.2 °F 88% 29.99 in 10.0 mi SSE 15.0 mph 20.7 mph N/A   Mostly Cloudy
3:45 AM 69.8 °F - 66.2 °F 88% 29.98 in 10.0 mi SSE 13.8 mph - N/A   Mostly Cloudy
3:51 AM 70.0 °F - 66.0 °F 87% 29.98 in 10.0 mi SSE 16.1 mph 21.9 mph N/A   Overcast
4:39 AM 69.8 °F - 66.2 °F 88% 29.95 in 10.0 mi SSE 17.3 mph 27.6 mph N/A   Scattered Clouds
4:51 AM 69.1 °F - 66.0 °F 90% 29.95 in 10.0 mi SSE 19.6 mph 25.3 mph N/A   Partly Cloudy
5:47 AM 68.0 °F - 66.2 °F 94% 29.94 in 10.0 mi SSE 15.0 mph 23.0 mph N/A   Mostly Cloudy
5:51 AM 68.0 °F - 66.0 °F 93% 29.94 in 10.0 mi SSE 13.8 mph 23.0 mph N/A   Mostly Cloudy
6:02 AM 68.0 °F - 66.2 °F 94% 29.94 in 9.0 mi SSE 12.7 mph 23.0 mph N/A   Mostly Cloudy
6:51 AM 68.0 °F - 66.0 °F 93% 29.95 in 9.0 mi SSE 15.0 mph 21.9 mph N/A   Overcast
7:33 AM 69.8 °F - 66.2 °F 88% 29.97 in 7.0 mi SSE 13.8 mph 25.3 mph N/A   Overcast
7:51 AM 69.1 °F - 66.0 °F 90% 29.97 in 8.0 mi SSE 16.1 mph 25.3 mph N/A   Overcast
8:51 AM 70.0 °F - 66.0 °F 87% 29.99 in 9.0 mi SSE 12.7 mph 25.3 mph N/A   Mostly Cloudy
8:59 AM 71.6 °F - 66.2 °F 83% 30.00 in 10.0 mi SSE 19.6 mph 27.6 mph N/A   Overcast
9:51 AM 73.0 °F - 64.9 °F 76% 30.00 in 10.0 mi South 21.9 mph 31.1 mph N/A   Overcast
10:29 AM 75.2 °F - 62.6 °F 65% 30.01 in 10.0 mi South 21.9 mph 31.1 mph N/A   Mostly Cloudy
10:51 AM 75.9 °F - 63.0 °F 64% 30.00 in 10.0 mi SSE 23.0 mph 32.2 mph N/A   Mostly Cloudy
11:51 AM 78.1 °F - 61.0 °F 56% 29.98 in 10.0 mi SSE 19.6 mph 32.2 mph N/A   Mostly Cloudy
12:51 PM 78.1 °F - 63.0 °F 60% 29.95 in 10.0 mi SSE 21.9 mph 35.7 mph N/A   Mostly Cloudy
1:51 PM 80.1 °F 81.7 °F 64.0 °F 58% 29.91 in 10.0 mi SSE 24.2 mph 34.5 mph N/A   Mostly Cloudy
2:51 PM 81.0 °F 82.2 °F 63.0 °F 54% 29.86 in 10.0 mi SSE 25.3 mph 38.0 mph N/A   Scattered Clouds
3:51 PM 80.1 °F 81.2 °F 62.1 °F 54% 29.84 in 10.0 mi SSE 20.7 mph 35.7 mph N/A   Partly Cloudy
4:51 PM 79.0 °F - 60.1 °F 52% 29.82 in 10.0 mi SSE 26.5 mph 35.7 mph N/A   Clear
5:51 PM 78.1 °F - 61.0 °F 56% 29.82 in 10.0 mi SSE 23.0 mph 32.2 mph N/A   Clear
6:51 PM 75.0 °F - 62.1 °F 64% 29.82 in 10.0 mi SSE 17.3 mph 33.4 mph N/A   Partly Cloudy
7:51 PM 72.0 °F - 64.9 °F 78% 29.82 in 10.0 mi SSE 17.3 mph 28.8 mph N/A   Partly Cloudy
8:51 PM 70.0 °F - 66.0 °F 87% 29.83 in 10.0 mi SSE 19.6 mph 26.5 mph N/A   Partly Cloudy
9:13 PM 69.8 °F - 66.2 °F 88% 29.84 in 10.0 mi SSE 19.6 mph 32.2 mph N/A   Mostly Cloudy
9:30 PM 69.8 °F - 66.2 °F 88% 29.85 in 10.0 mi SSE 17.3 mph 27.6 mph N/A   Mostly Cloudy
9:51 PM 71.1 °F - 66.9 °F 87% 29.85 in 10.0 mi SSE 18.4 mph 28.8 mph N/A   Overcast
10:51 PM 71.1 °F - 66.9 °F 87% 29.86 in 10.0 mi SSE 18.4 mph 28.8 mph N/A   Overcast
11:51 PM 71.1 °F - 66.9 °F 87% 29.84 in 9.0 mi SSE 23.0 mph 31.1 mph N/A   Overcast